This is the latest recevied weather packets stored in our database for station/object KA3RQR. If no packets are shown the sender has not sent any weather packets the latest 10 day(s).
| Time | Temp. | Humidity | Pressure | Rain* | Wind** | Luminosity | Snow |
|---|---|---|---|---|---|---|---|
| 1777308799 | 17.78° C | 57% | 1024.3 hPa | 0 mm | - | 112 W/m² | - |
| 1777308494 | 17.22° C | 57% | 1024.6 hPa | 0 mm | - | 98 W/m² | - |
| 1777308189 | 17.22° C | 57% | 1024.7 hPa | 0 mm | - | 63 W/m² | - |
| 1777307885 | 16.67° C | 57% | 1024.7 hPa | 0 mm | - | 70 W/m² | - |
| 1777307584 | 16.67° C | 56% | 1024.6 hPa | 0 mm | - | 77 W/m² | - |
| 1777307280 | 17.22° C | 59% | 1024.7 hPa | 0 mm | - | 80 W/m² | - |
| 1777306977 | 16.67° C | 59% | 1024.5 hPa | 0 mm | - | 67 W/m² | - |
| 1777306675 | 17.22° C | 59% | 1024.5 hPa | 0 mm | - | 58 W/m² | - |
| 1777306372 | 17.22° C | 57% | 1024.8 hPa | 0 mm | - | 66 W/m² | - |
| 1777306066 | 16.67° C | 59% | 1024.8 hPa | 0 mm | - | 268 W/m² | - |
| 1777305763 | 16.67° C | 61% | 1024.6 hPa | 0 mm | - | 65 W/m² | - |
| 1777305459 | 16.67° C | 61% | 1024.9 hPa | 0 mm | - | 62 W/m² | - |
| 1777305159 | 16.67° C | 57% | 1024.7 hPa | 0 mm | - | 57 W/m² | - |
| 1777304854 | 16.11° C | 64% | 1024.6 hPa | 0 mm | - | 63 W/m² | - |
| 1777304551 | 16.11° C | 60% | 1024.8 hPa | 0 mm | - | 75 W/m² | - |
| 1777304248 | 16.11° C | 64% | 1024.8 hPa | 0 mm | - | 179 W/m² | - |
| 1777303945 | 16.11° C | 63% | 1024.8 hPa | 0 mm | - | 58 W/m² | - |
| 1777303642 | 15.56° C | 62% | 1024.9 hPa | 0 mm | - | 61 W/m² | - |
| 1777303340 | 15.56° C | 65% | 1025 hPa | 0 mm | - | 53 W/m² | - |
| 1777303037 | 16.11° C | 65% | 1024.9 hPa | 0 mm | - | 49 W/m² | - |
| 1777302735 | 15.56° C | 64% | 1024.9 hPa | 0 mm | - | 49 W/m² | - |
| 1777302433 | 15° C | 66% | 1025 hPa | 0 mm | - | 45 W/m² | - |
| 1777302130 | 15° C | 68% | 1024.9 hPa | 0 mm | - | 50 W/m² | - |
| 1777301827 | 15° C | 67% | 1025 hPa | 0 mm | - | 69 W/m² | - |
| 1777301525 | 15° C | 67% | 1025.1 hPa | 0 mm | - | 41 W/m² | - |
* Rain latest hour (hover to see other rain measurements)
** Current wind speed in m/s (hover to see current wind gust speed)